Вернуться в каталог

STARLINK-3889

АктивенСвязьVLEO
NORAD 52331·PAYLOAD·🇺🇸 United States

Запущен Apr 29, 2022 с Cape Canaveral Space Force Station

Loading…

Ближайшие Пролёты (ближайшие 24 часа)

TLE

СвежийSource: CelesTrak SupGP

Эпоха: Sep 14, 2026, 21:55 UTC

1 52331C 22045A   26257.91368056  .00723800  00000+0  24299-1 0  2570
2 52331  53.1611  77.8288 0001371  84.4811 277.5598 15.29957096    18

Отслеживайте STARLINK-3889 в реальном времени с AllMySat

Download on the App Store